Home > Weather > Swanage > Past weeks

Flag for United Kingdom Past Weather in Swanage, England, United Kingdom — Yesterday and Last 2 Weeks

Now
57 °F

Partly sunny.


Feels Like: 54 °F
Forecast: 55 / 64 °F
Wind: 15 mph from Northeast

Location: Bournemouth Airport

Current Time: May 30, 2016 at 10:03:00 AM

Latest Report: May 30, 2016 at 9:20 AM


Visibility: N/A

Pressure: 30.01 "Hg

Humidity: 77%

Dew Point: 50 °F

Location of SwanageLocation

Past Weather in Swanage — Graph

°F

Swanage Temperature Yesterday

Maximum temperature yesterday: 68 °F (at 3:20 PM)
Minimum temperature yesterday: 50 °F (at 5:50 AM)
Average temperature yesterday: 61 °F

High & Low Weather Summary for the Past Weeks

 TemperatureHumidityPressure
High70 °F (May 28, 1:50 PM)100% (May 16, 6:20 AM)30.21 "Hg (May 16, 6:20 AM)
Low39 °F (May 26, 6:20 AM)42% (May 24, 12:50 PM)29.62 "Hg (May 18, 8:20 AM)
Average57 °F76%29.96 "Hg
* Reported May 15 8:20 AM — May 30 8:50 AM, Swanage, Weather by CustomWeather, © 2016

Note: Actual official high and low records may vary slightly from our data, if they occured in-between our weather recording intervals... More about our weather records

Advertising

Swanage Weather History for the Previous 24 Hours

Scroll right to see more
 ConditionsComfort  
Time TempWeatherWind HumidityBarometerVisibility
8:50 AM
Mon, May 30
57 °FPartly sunny.13 mph82%30.01 "HgN/A
8:20 AM55 °FPartly sunny.12 mph82%30.01 "HgN/A
7:50 AM55 °FMore clouds than sun.15 mph82%30.01 "HgN/A
7:20 AM54 °FMore clouds than sun.14 mph88%30.01 "HgN/A
6:50 AM54 °FMore clouds than sun.10 mph88%29.98 "HgN/A
6:20 AM54 °FMore clouds than sun.12 mph88%29.98 "HgN/A
5:50 AM54 °FPassing clouds.12 mph88%29.98 "HgN/A
10:20 PM
Sun, May 29
57 °FClear.9 mph82%29.95 "Hg10 mi
9:50 PM57 °FSunny.8 mph82%29.95 "Hg10 mi
9:20 PM59 °FSunny.8 mph77%29.95 "Hg10 mi
8:50 PM61 °FSunny.10 mph72%29.92 "Hg10 mi
8:20 PM64 °FSunny.10 mph64%29.92 "Hg10 mi
7:50 PM64 °FSunny.13 mph64%29.92 "Hg10 mi
7:20 PM64 °FSunny.13 mph64%29.92 "Hg10 mi
6:50 PM64 °FSunny.14 mph64%29.92 "Hg10 mi
6:20 PM66 °FSunny.15 mph60%29.89 "Hg10 mi
5:20 PM66 °FPassing clouds.14 mph60%29.89 "HgN/A
4:50 PM66 °FPassing clouds.15 mph64%29.89 "HgN/A
4:20 PM68 °FPassing clouds.13 mph56%29.89 "HgN/A
3:50 PM68 °FSunny.14 mph60%29.89 "Hg10 mi
3:20 PM68 °FSunny.13 mph60%29.89 "Hg10 mi
2:50 PM66 °FPassing clouds.14 mph64%29.89 "HgN/A
2:20 PM66 °FPassing clouds.14 mph60%29.89 "HgN/A
1:50 PM66 °FPassing clouds.14 mph60%29.89 "HgN/A
1:20 PM66 °FSunny.14 mph60%29.89 "Hg10 mi
12:50 PM63 °FPassing clouds.16 mph68%29.89 "HgN/A
12:20 PM63 °FSunny.16 mph68%29.89 "Hg10 mi
11:50 AM61 °FSunny.15 mph68%29.89 "Hg10 mi
11:20 AM61 °FPassing clouds.15 mph68%29.89 "HgN/A
10:50 AM61 °FPassing clouds.14 mph68%29.89 "HgN/A
10:20 AM59 °FPassing clouds.16 mph63%29.89 "HgN/A
Weather by CustomWeather, © 2016

See weather overviewHow to use our weather pages